Theta_e
302 300 299 298 299 299 298 298 297 296 295 295 294 295 294 295 295 296 297 298 299 299 299 299 299 298 298 297 297 296 296 295 294 295 295 294 293 293 292 292 292 290
301 300 299 299 299 300 299 299 297 296 296 295 295 296 296 296 295 296 296 297 297 297 297 297 296 296 296 295 295 295 293 293 292 294 292 292 292 292 292 292 290 290
300 300 299 299 300 300 299 299 298 299 298 296 295 294 294 294 295 295 295 295 295 294 294 294 294 294 294 294 294 293 292 291 291 291 291 290 290 290 290 290 289 289
299 300 300 300 300 298 298 294 294 295 295 294 294 293 293 294 294 294 294 292 293 292 293 293 293 293 293 293 293 292 291 290 290 291 290 289 289 289 289 289 288 287
297 297 298 299 299 296 296 295 293 293 294 294 293 293 291 292 292 292 292 291 292 291 292 292 292 292 292 292 292 290 290 289 289 289 288 287 288 288 288 288 287 287
296 296 297 297 296 295 293 294 293 293 294 293 292 291 290 290 290 290 291 290 291 291 291 291 291 291 291 291 290 289 288 287 288 288 287 286 286 287 288 287 286 285
295 295 295 295 294 293 292 292 293 293 293 292 290 290 290 290 289 289 290 290 290 290 290 290 290 289 290 290 289 288 287 287 287 286 285 285 285 285 286 286 285 284
294 294 294 294 293 292 292 291 291 291 290 289 289 290 290 289 289 289 289 289 289 289 289 289 289 288 288 288 287 286 286 287 286 285 284 284 284 283 284 285 284 283
294 293 293 291 291 291 291 291 291 290 289 288 288 288 289 289 289 289 289 289 289 289 288 288 288 287 287 287 286 285 285 286 286 285 284 283 283 283 283 283 283 282
293 292 291 290 289 289 290 290 290 290 289 289 288 288 288 289 289 288 288 288 288 287 287 287 286 286 286 286 286 285 285 285 285 285 284 284 283 283 282 282 282 281
293 290 289 288 288 288 288 289 289 289 288 288 288 288 288 288 288 288 287 287 287 286 286 286 285 286 286 286 285 285 285 285 284 284 284 284 283 282 282 282 281 281
293 290 289 288 287 287 287 287 287 287 287 288 288 287 287 287 287 287 287 286 286 286 286 285 285 285 285 285 285 285 285 284 284 284 284 283 282 282 281 281 281 281
292 290 289 288 287 287 287 287 286 286 286 286 287 287 286 286 286 286 286 286 286 286 285 285 285 285 285 285 285 285 284 284 283 283 282 282 281 281 281 281 281 281
291 289 289 288 287 287 286 286 286 286 286 286 286 286 286 286 285 285 285 286 286 285 285 285 284 284 284 284 284 284 284 283 283 282 281 281 281 281 281 281 281 281
290 289 289 288 287 286 285 285 285 285 285 285 285 285 286 286 285 285 285 285 285 284 284 284 284 284 284 283 283 283 283 282 282 281 281 280 280 280 280 280 281 281
291 289 288 287 287 286 285 285 284 285 285 285 285 285 285 285 285 285 284 284 283 283 283 284 284 284 284 286 285 283 282 282 282 281 281 280 280 279 279 279 280 280
290 288 287 287 287 287 286 285 285 285 284 285 285 285 284 284 284 284 283 283 283 283 282 282 282 283 285 288 287 287 283 282 281 281 281 280 280 279 278 279 279 280
289 288 287 286 287 286 286 285 285 285 284 284 284 284 284 284 283 283 283 283 282 282 282 282 282 284 288 288 289 287 285 282 282 281 280 280 280 279 279 279 279 279
290 287 287 286 286 286 286 285 285 285 284 284 284 284 284 283 282 283 282 282 282 281 282 282 282 285 288 289 288 288 287 284 282 281 281 280 280 279 279 279 279 279
289 287 286 286 286 286 286 285 285 284 284 284 284 284 283 282 283 283 283 282 282 281 281 281 281 284 288 288 288 288 288 286 283 282 281 280 280 279 279 280 280 280
289 288 287 286 285 285 285 284 284 284 284 284 284 283 283 282 282 282 282 283 282 282 281 280 280 285 287 288 288 288 288 286 283 282 281 280 280 279 280 280 280 280
290 288 287 286 285 285 284 284 284 284 283 283 283 283 283 283 283 283 282 282 282 281 281 280 280 285 287 287 287 287 288 283 282 281 281 280 279 279 279 280 280 280
291 288 287 286 285 284 284 283 283 283 283 283 282 282 282 282 282 282 282 282 281 281 280 280 280 283 286 287 287 288 287 283 281 281 280 280 279 279 279 279 280 280
291 288 286 285 284 284 284 284 284 284 283 283 282 281 281 281 282 282 282 282 281 280 280 280 280 281 285 287 287 288 286 283 281 280 280 280 280 280 279 279 279 281
289 287 286 285 284 284 284 283 283 283 283 283 282 282 282 282 282 282 282 281 281 281 282 280 280 281 285 286 287 288 286 284 282 280 280 280 279 279 280 279 279 281
287 286 286 285 284 284 284 284 284 284 283 282 282 283 282 282 282 281 280 280 280 280 280 280 279 279 283 286 287 288 287 284 284 281 280 280 280 280 280 280 279 280
Wind_Speed
4 5 5 5 5 5 6 7 8 9 8 7 7 8 7 6 7 8 7 6 6 6 6 6 6 6 5 6 6 6 6 6 5 5 5 5 5 5 5 4 5 5
7 5 4 4 5 5 5 4 6 8 8 8 6 6 6 7 8 7 7 7 6 5 6 6 5 6 8 7 7 7 6 6 6 3 6 6 6 5 6 6 6 5
9 8 7 7 8 7 8 6 5 6 6 5 5 5 5 6 7 6 5 6 6 6 6 6 7 7 8 8 7 7 7 7 7 5 6 6 5 6 6 6 6 6
10 10 8 7 6 6 7 5 4 4 4 5 6 5 6 6 6 7 6 6 6 7 7 7 8 8 8 8 8 6 7 7 7 7 7 6 5 6 6 6 6 6
9 8 8 8 6 6 5 6 8 6 6 7 6 6 6 7 6 6 6 6 6 7 7 8 7 8 8 8 8 8 7 7 7 7 8 7 5 6 6 7 7 7
7 7 8 7 5 6 6 7 8 9 7 7 8 7 6 7 7 7 8 8 7 7 7 8 8 8 8 8 7 7 7 7 7 8 9 9 7 5 5 6 7 7
8 8 8 7 7 6 5 7 8 9 7 6 6 7 8 8 8 9 8 8 9 8 8 8 9 9 7 8 8 9 7 9 9 9 10 8 8 7 5 6 7 8
9 9 8 8 9 9 9 8 7 8 8 6 8 7 8 9 9 9 8 8 9 8 8 8 8 9 9 8 9 10 9 7 9 10 10 9 8 8 7 6 7 8
8 9 8 9 10 9 10 9 8 8 8 9 8 8 7 8 10 10 9 9 9 9 9 9 9 10 9 9 9 10 11 9 8 10 11 11 10 9 8 7 8 7
9 8 10 10 10 9 10 10 9 9 8 9 8 8 8 7 8 9 9 9 10 10 9 10 10 9 9 8 10 11 11 11 10 10 9 10 9 9 8 8 8 8
11 10 10 10 11 9 10 9 9 8 8 9 8 8 8 7 7 8 8 9 8 10 10 10 10 10 10 10 9 10 11 11 10 10 9 8 8 8 8 8 8 8
11 11 12 11 11 10 10 9 9 9 9 7 9 9 8 8 9 8 8 9 8 9 10 11 10 10 11 11 11 10 10 9 9 8 8 8 8 8 8 7 8 8
12 12 11 11 11 10 9 9 10 9 10 9 8 9 9 9 9 9 8 9 10 9 10 11 11 10 10 11 10 10 10 9 8 8 8 8 7 8 7 7 7 7
11 11 11 11 10 10 10 10 9 10 10 9 9 10 10 10 10 10 9 8 9 10 10 10 11 11 10 11 10 10 10 9 9 10 9 8 7 6 7 7 7 7
9 9 9 11 11 10 10 10 10 9 9 9 9 9 7 9 9 10 11 10 9 10 10 10 10 11 10 11 11 11 10 11 10 10 10 9 6 6 6 7 6 6
11 10 10 10 11 11 11 10 10 9 9 9 10 9 9 9 10 9 10 11 12 11 10 9 9 8 12 17 15 13 12 10 9 9 10 8 8 7 7 7 6 6
11 11 10 11 12 11 10 11 10 9 9 9 10 10 10 9 10 10 11 10 12 12 12 10 9 8 16 18 16 16 13 11 11 10 10 11 10 11 11 9 7 6
12 11 12 12 12 12 12 9 9 10 10 10 9 9 9 8 10 11 10 10 10 10 11 11 11 12 12 12 12 15 14 12 10 9 9 10 10 11 10 8 9 8
13 13 13 12 12 11 11 10 11 10 11 10 10 9 8 10 11 11 11 10 10 11 11 11 9 12 13 13 13 15 15 13 8 10 10 10 12 11 10 9 8 8
13 12 11 11 10 10 11 11 11 12 11 9 8 8 9 9 9 10 8 10 11 11 10 11 10 13 15 15 13 14 13 11 7 10 10 13 12 11 9 9 9 9
13 13 12 10 10 10 11 11 12 10 10 9 9 9 10 10 11 10 9 8 8 8 7 8 8 13 14 15 14 15 15 10 7 8 9 9 9 9 9 9 9 8
13 12 11 10 10 11 11 11 11 10 11 9 8 6 8 7 7 7 8 8 8 8 8 9 8 14 16 17 18 18 16 8 6 7 8 8 9 9 8 8 7 8
13 12 10 10 10 11 12 11 10 10 8 7 8 9 9 9 8 7 7 8 9 9 9 8 7 13 17 17 18 18 12 7 6 6 7 7 9 9 8 8 8 8
13 12 11 10 11 12 12 10 8 6 9 9 10 11 10 9 9 8 8 7 8 9 9 7 6 9 15 16 17 17 14 10 8 7 7 8 7 8 7 7 9 12
11 10 11 11 12 12 11 11 11 10 9 8 7 6 7 7 8 7 7 6 6 6 8 9 6 7 14 13 15 15 12 6 7 7 8 7 7 6 5 5 7 8
10 11 11 12 12 11 10 11 9 8 9 9 8 7 8 7 7 7 8 8 8 7 7 7 7 6 10 16 15 16 16 8 7 8 9 9 7 6 6 6 7 8
Wind_Direction
152 155 163 163 175 178 177 180 170 172 174 168 175 179 176 170 152 173 172 168 171 161 148 142 131 115 113 119 129 120 127 121 120 119 117 112 115 119 120 108 94 100
182 160 149 160 179 185 189 202 173 171 167 162 160 154 146 147 153 168 164 152 155 142 125 122 117 118 135 137 138 136 130 129 116 115 123 120 119 116 109 104 99 97
183 183 180 183 190 186 185 184 188 184 180 170 148 130 126 133 147 160 151 147 138 130 131 132 132 141 149 148 146 139 138 131 131 130 124 123 125 120 116 107 97 94
185 193 188 187 176 167 172 143 161 161 148 155 168 142 138 141 146 146 140 143 141 143 143 147 150 151 150 149 146 136 134 134 132 130 119 109 113 121 116 107 106 104
170 172 182 186 175 157 157 157 176 178 184 178 149 127 136 146 141 143 144 151 148 149 151 151 150 149 148 150 149 137 136 128 130 129 124 121 118 121 121 121 123 117
170 171 175 173 151 151 161 169 178 183 187 183 170 153 151 147 152 154 158 158 159 151 153 153 150 147 153 149 142 138 136 132 137 132 129 129 128 124 128 129 126 118
174 172 174 163 150 162 156 173 182 184 187 178 145 158 153 155 160 165 164 163 154 155 156 157 152 149 149 147 141 137 134 136 138 140 137 134 133 131 133 132 125 122
180 184 181 180 177 176 184 183 183 185 179 156 171 161 160 161 163 165 167 162 155 154 157 154 150 147 149 151 146 141 137 142 145 146 141 138 142 142 140 133 132 129
185 190 184 185 182 182 186 184 188 186 178 176 174 165 167 168 166 167 167 163 158 158 157 152 151 151 156 153 149 144 141 144 151 150 148 150 152 149 142 136 134 131
191 187 185 185 188 187 185 180 180 182 177 180 173 166 167 161 164 166 165 167 161 159 157 153 150 155 155 151 147 145 148 151 156 155 153 155 151 144 141 140 138 135
190 184 186 186 192 190 190 181 181 175 174 176 171 170 169 156 158 169 167 169 167 162 156 154 156 156 152 149 149 153 155 157 160 158 153 150 142 138 138 142 145 142
191 184 188 187 188 188 188 183 181 177 174 177 176 168 164 165 164 171 174 171 165 162 159 157 158 158 156 154 154 154 157 159 155 148 142 134 131 136 143 145 144 143
193 190 190 189 186 186 180 180 181 178 177 180 179 174 170 166 170 169 176 171 168 165 165 161 160 160 158 156 156 157 157 156 149 137 131 131 133 136 142 146 147 146
187 183 188 190 188 185 183 181 178 178 181 179 176 179 174 172 171 170 169 171 171 170 166 163 163 164 163 159 157 159 158 152 148 147 144 134 130 135 144 151 154 152
177 179 184 185 185 187 180 175 179 177 177 175 180 183 177 172 168 171 171 170 170 169 168 170 171 170 166 162 160 163 157 154 156 154 149 133 127 130 142 155 157 156
186 183 184 181 183 187 183 181 183 183 181 181 183 184 182 174 172 176 178 177 171 171 175 176 180 175 171 167 166 163 161 157 155 157 149 135 141 141 150 168 167 168
186 190 183 186 188 185 180 183 184 182 186 189 187 183 181 177 175 180 185 180 179 176 175 181 182 178 172 172 167 159 156 157 159 158 155 143 140 159 169 173 179 175
191 186 186 187 184 185 180 181 181 183 188 188 186 183 183 174 179 184 183 183 183 179 181 183 185 178 171 165 153 157 162 163 162 159 161 165 151 170 174 173 181 177
189 189 192 190 188 183 178 178 182 186 188 186 188 183 170 181 186 181 187 186 187 186 186 183 184 175 169 166 161 165 166 165 165 161 162 169 173 177 177 180 178 176
188 188 193 193 186 184 180 180 182 189 187 184 180 179 183 184 185 188 186 189 191 190 187 186 185 177 170 169 167 171 169 165 168 167 171 172 176 178 179 183 181 177
191 189 192 188 184 182 180 184 185 184 182 181 177 182 182 184 185 187 192 189 189 191 192 189 187 175 173 171 172 173 176 170 170 170 172 175 179 180 182 182 181 180
188 186 186 183 180 180 180 183 184 183 181 176 175 171 182 178 187 188 187 185 183 183 186 191 189 179 177 177 180 181 174 168 165 169 176 178 177 181 186 184 180 185
187 184 183 180 177 176 181 183 180 180 176 172 176 182 186 188 180 186 186 188 186 186 189 193 191 186 184 181 180 175 165 169 165 171 175 174 182 187 191 183 188 192
186 179 174 173 175 181 180 176 175 173 181 178 182 181 187 182 179 187 189 185 193 194 193 183 191 192 188 185 177 177 175 173 173 171 173 179 186 195 184 187 195 199
173 168 171 173 178 182 178 176 180 181 179 176 182 177 174 168 183 180 173 172 182 189 180 183 184 179 188 186 185 183 171 169 168 174 176 188 191 198 189 198 205 203
170 170 174 177 178 175 176 178 172 161 170 170 175 178 178 177 174 172 169 180 174 178 175 179 167 170 181 184 181 182 178 173 173 176 189 187 194 200 198 211 214 223